Vilo Acuña International Airport

Jump to: basic info | weather | frequencies | runways | comments

Related pages: nearby airports | nearby navaids | notams | map

Basic information (top)

Codes: CYO MUCL
Location: lon 21.616501, lat -81.545998, elev 10 ft / 3 m msl
Status: medium_airport
Scheduled airline service: yes
Links: Wikipedia Mobile

Weather (top)

Current conditions (rec'd 2014/10/25 06:05Z):

MUCL 250605Z AUTO 36005KT 330V030 26/23 Q1010

Airport forecast (rec'd 2014/10/04 18:20Z):

TAF MUCL 041700Z 0418/0424 12010KT 9000 SCT020

Frequencies (top)

Verify before use: may be inaccurate or out of date.

A/G: 340.7 MHz (CAYO LARGO RDO)
APP: 120.1 MHz (CAYO LARGO APP)
TWR: 118.5 MHz (CAYO LARGO TWR)

Runways (top)

12/30: 9,869 x 148 ft (3,008 x 45 m) — paved — lighted

Latest comments (top)

No comments yet for Vilo Acuña International Airport

More... (top)

See also NOTAMs and nearby airports and navaids, or visit the Vilo Acuña International Airport page at the main OurAirports website..